M I D A S
Marine Information and Data Acquisition System
Tripno 1125 of the Zeeleeuw from 2006-06-06 08:59:31 to 2006-06-06 14:23:31
Back to CruiseResearch ActivitiesStationsMapUnderway DataData graphs

EquipmentUnitsComments
TimeDGPSUTC
LatitudeDGPSDM.mWGS84
LongitudeDGPSDM.mWGS84
SpeedMeteo Stationm/sRelative wind speed
DirectionMeteo StationdegRelative wind direction
TemperatureMeteo Stationdeg CelciusAir temperature
PressureMeteo StationPaAtmospheric pressure
HumidityMeteo Station%Relative humidity
Missing or incorrect values are displayed as -999
Metereological data collected by the RV Zeeleeuw from 2006-06-06 07:47:55 to 2006-06-06 14:36:42
                                                                                    Next 1000 lines
Time Latitude Longitude Speed Direction Temperature Pressure Humidity
2006-06-06 07:48:06 51°13.602 2°56.098 -999 320 12.1 102880 64
2006-06-06 07:48:11 51°13.602 2°56.098 -999 318 12.1 102880 64
2006-06-06 07:48:16 51°13.602 2°56.098 -999 318 12.1 102880 64
2006-06-06 07:48:21 51°13.602 2°56.099 -999 318 12.1 102870 64
2006-06-06 07:48:26 51°13.602 2°56.099 -999 318 12.1 102870 64
2006-06-06 07:48:30 51°13.602 2°56.099 -999 318 12.1 102880 64
2006-06-06 07:48:36 51°13.602 2°56.099 -999 318 12.1 102880 64
2006-06-06 07:48:41 51°13.602 2°56.098 -999 318 12.1 102880 64
2006-06-06 07:48:46 51°13.602 2°56.098 -999 318 12.1 102880 64
2006-06-06 07:48:51 51°13.602 2°56.098 -999 1 12.1 102880 64
2006-06-06 07:48:54 51°13.602 2°56.098 -999 1 12.1 102880 64
2006-06-06 07:49:01 51°13.602 2°56.098 -999 1 12.1 102880 64
2006-06-06 07:49:06 51°13.602 2°56.098 -999 359 12.1 102880 64
2006-06-06 07:49:11 51°13.602 2°56.099 -999 359 12.1 102880 64
2006-06-06 07:49:16 51°13.602 2°56.099 -999 359 12.1 102880 64
2006-06-06 07:49:21 51°13.602 2°56.099 -999 359 12.1 102880 64
2006-06-06 07:49:26 51°13.602 2°56.099 -999 359 12.1 102880 64
2006-06-06 07:49:31 51°13.602 2°56.099 -999 354 12.1 102880 64
2006-06-06 07:49:35 51°13.602 2°56.099 -999 353 12.1 102880 64
2006-06-06 07:49:41 51°13.602 2°56.099 -999 353 12.1 102880 64
2006-06-06 07:49:46 51°13.602 2°56.099 -999 353 12.1 102880 64
2006-06-06 07:49:51 51°13.602 2°56.099 -999 353 12.1 102880 64
2006-06-06 07:49:56 51°13.602 2°56.099 -999 353 12.1 102880 64
2006-06-06 07:50:01 51°13.602 2°56.099 -999 353 12.1 102880 64
2006-06-06 07:50:06 51°13.602 2°56.099 -999 353 12.1 102880 64
2006-06-06 07:50:11 51°13.602 2°56.099 -999 347 12.1 102880 64
2006-06-06 07:50:16 51°13.602 2°56.099 -999 347 12.1 102880 64
2006-06-06 07:50:21 51°13.602 2°56.099 -999 347 12.1 102880 64
2006-06-06 07:50:27 51°13.602 2°56.099 -999 347 12.1 102880 64
2006-06-06 07:50:31 51°13.602 2°56.099 -999 347 12.1 102880 64
2006-06-06 07:50:36 51°13.602 2°56.099 -999 347 12.1 102880 64
2006-06-06 07:50:41 51°13.602 2°56.099 -999 353 12.1 102880 64
2006-06-06 07:50:46 51°13.602 2°56.099 -999 340 12.1 102880 64
2006-06-06 07:50:51 51°13.602 2°56.099 -999 329 12.1 102880 64
2006-06-06 07:50:55 51°13.602 2°56.099 -999 326 12.1 102880 64
2006-06-06 07:51:00 51°13.602 2°56.099 -999 325 12.1 102880 64
2006-06-06 07:51:06 51°13.602 2°56.099 -999 328 12.1 102880 64
2006-06-06 07:51:11 51°13.602 2°56.099 -999 335 12.1 102880 64
2006-06-06 07:51:17 51°13.602 2°56.099 -999 334 12.1 102880 64
2006-06-06 07:51:21 51°13.602 2°56.099 -999 306 12.1 102880 64
2006-06-06 07:51:26 51°13.602 2°56.099 -999 309 12.1 102880 64
2006-06-06 07:51:31 51°13.602 2°56.099 -999 307 12.1 102880 65
2006-06-06 07:51:37 51°13.602 2°56.1 -999 306 12.1 102880 65
2006-06-06 07:51:41 51°13.602 2°56.099 -999 306 12.1 102880 65
2006-06-06 07:51:46 51°13.602 2°56.099 -999 300 12.1 102880 65
2006-06-06 07:51:51 51°13.602 2°56.099 -999 306 12.1 102880 65
2006-06-06 07:51:57 51°13.602 2°56.1 -999 292 12.1 102880 65
2006-06-06 07:52:01 51°13.602 2°56.1 -999 298 12.1 102880 65
2006-06-06 07:52:06 51°13.602 2°56.1 -999 298 12.1 102880 65
2006-06-06 07:52:11 51°13.602 2°56.099 -999 300 12.1 102880 65
2006-06-06 07:52:14 51°13.602 2°56.099 -999 300 12.1 102880 65
2006-06-06 07:52:21 51°13.602 2°56.099 -999 297 12.1 102880 65
2006-06-06 07:52:26 51°13.602 2°56.099 -999 295 12.1 102880 65
2006-06-06 07:52:31 51°13.602 2°56.099 -999 282 12.1 102880 65
2006-06-06 07:52:35 51°13.602 2°56.099 -999 303 12.1 102880 65
2006-06-06 07:52:41 51°13.602 2°56.099 -999 282 12.1 102880 65
2006-06-06 07:52:46 51°13.602 2°56.099 -999 273 12.1 102880 65
2006-06-06 07:52:51 51°13.602 2°56.099 -999 279 12.1 102880 65
2006-06-06 07:52:57 51°13.602 2°56.099 -999 278 12.1 102880 65
2006-06-06 07:53:01 51°13.602 2°56.099 -999 279 12.1 102880 65
2006-06-06 07:53:06 51°13.603 2°56.099 -999 283 12.1 102880 65
2006-06-06 07:53:11 51°13.603 2°56.099 -999 318 12.1 102880 65
2006-06-06 07:53:17 51°13.603 2°56.099 -999 305 12.1 102880 65
2006-06-06 07:53:21 51°13.603 2°56.099 -999 305 12.1 102880 64
2006-06-06 07:53:26 51°13.603 2°56.099 -999 303 12.1 102880 64
2006-06-06 07:53:31 51°13.603 2°56.099 -999 324 12.1 102880 64
2006-06-06 07:53:37 51°13.603 2°56.099 -999 326 12.1 102880 64
2006-06-06 07:53:41 51°13.603 2°56.099 -999 316 12.1 102880 64
2006-06-06 07:53:46 51°13.603 2°56.099 -999 314 12.1 102880 64
2006-06-06 07:53:51 51°13.603 2°56.099 -999 322 12.1 102880 65
2006-06-06 07:53:56 51°13.603 2°56.099 -999 322 12.1 102880 65
2006-06-06 07:54:01 51°13.603 2°56.099 -999 312 12.1 102880 65
2006-06-06 07:54:05 51°13.603 2°56.099 -999 310 12.1 102880 65
2006-06-06 07:54:11 51°13.603 2°56.099 -999 311 12.1 102880 65
2006-06-06 07:54:16 51°13.603 2°56.099 -999 227 12.1 102880 65
2006-06-06 07:54:21 51°13.603 2°56.099 -999 321 12.1 102880 65
2006-06-06 07:54:26 51°13.603 2°56.099 -999 316 12.1 102880 65
2006-06-06 07:54:30 51°13.603 2°56.099 -999 302 12.1 102880 65
2006-06-06 07:54:35 51°13.602 2°56.099 -999 302 12.1 102880 65
2006-06-06 07:54:41 51°13.602 2°56.099 -999 302 12.1 102880 65
2006-06-06 07:54:46 51°13.602 2°56.099 -999 304 12.1 102880 65
2006-06-06 07:54:51 51°13.602 2°56.099 -999 303 12.1 102880 64
2006-06-06 07:54:56 51°13.602 2°56.099 -999 303 12.1 102880 64
2006-06-06 07:55:01 51°13.602 2°56.099 -999 305 12 102880 64
2006-06-06 07:55:06 51°13.602 2°56.099 -999 316 12 102880 64
2006-06-06 07:55:11 51°13.602 2°56.099 -999 305 12 102880 65
2006-06-06 07:55:15 51°13.602 2°56.099 -999 311 12 102880 65
2006-06-06 07:55:21 51°13.602 2°56.099 -999 283 12 102880 65
2006-06-06 07:55:26 51°13.602 2°56.099 -999 292 12 102880 65
2006-06-06 07:55:30 51°13.603 2°56.099 -999 289 12 102880 65
2006-06-06 07:55:36 51°13.603 2°56.099 -999 286 12 102880 65
2006-06-06 07:55:41 51°13.602 2°56.099 -999 286 12 102880 65
2006-06-06 07:55:46 51°13.602 2°56.099 -999 294 12 102880 65
2006-06-06 07:55:50 51°13.602 2°56.099 -999 293 12 102880 65
2006-06-06 07:55:56 51°13.602 2°56.099 -999 288 12 102880 65
2006-06-06 07:56:01 51°13.602 2°56.099 -999 291 12 102880 65
2006-06-06 07:56:06 51°13.602 2°56.099 -999 291 12 102880 65
2006-06-06 07:56:11 51°13.602 2°56.099 -999 291 12 102890 65
2006-06-06 07:56:15 51°13.602 2°56.099 -999 287 12 102890 65
2006-06-06 07:56:21 51°13.602 2°56.099 -999 265 12 102880 65
2006-06-06 07:56:26 51°13.602 2°56.099 -999 264 12 102880 65
2006-06-06 07:56:31 51°13.602 2°56.099 -999 271 12 102890 65
2006-06-06 07:56:34 51°13.602 2°56.099 -999 295 12 102890 65
2006-06-06 07:56:41 51°13.602 2°56.099 -999 291 12 102880 65
2006-06-06 07:56:46 51°13.603 2°56.099 -999 299 12 102880 65
2006-06-06 07:56:50 51°13.603 2°56.099 -999 294 12 102890 65
2006-06-06 07:56:55 51°13.603 2°56.099 -999 228 12 102890 65
2006-06-06 07:57:01 51°13.603 2°56.099 -999 309 12 102890 65
2006-06-06 07:57:06 51°13.603 2°56.099 -999 305 12 102890 65
2006-06-06 07:57:10 51°13.603 2°56.099 -999 302 12 102880 65
2006-06-06 07:57:17 51°13.603 2°56.099 -999 306 12 102880 65
2006-06-06 07:57:21 51°13.603 2°56.099 -999 306 12 102890 65
2006-06-06 07:57:26 51°13.603 2°56.1 -999 306 12 102890 65
2006-06-06 07:57:31 51°13.603 2°56.1 -999 306 12 102880 65
2006-06-06 07:57:36 51°13.603 2°56.1 -999 306 12 102880 65
2006-06-06 07:57:41 51°13.603 2°56.1 -999 306 12 102890 65
2006-06-06 07:57:46 51°13.603 2°56.1 -999 306 12 102890 65
2006-06-06 07:57:51 51°13.603 2°56.099 -999 306 12 102890 65
2006-06-06 07:57:57 51°13.603 2°56.099 -999 306 12 102890 65
2006-06-06 07:58:01 51°13.603 2°56.099 -999 306 12 102890 65
2006-06-06 07:58:06 51°13.603 2°56.099 -999 306 12 102890 65
2006-06-06 07:58:11 51°13.603 2°56.099 -999 306 12 102890 65
2006-06-06 07:58:16 51°13.603 2°56.099 -999 306 12 102890 65
2006-06-06 07:58:21 51°13.603 2°56.099 -999 306 12 102880 65
2006-06-06 07:58:26 51°13.603 2°56.099 -999 296 12 102880 65
2006-06-06 07:58:31 51°13.603 2°56.099 -999 301 12 102890 66
2006-06-06 07:58:36 51°13.603 2°56.099 -999 304 12 102890 66
2006-06-06 07:58:41 51°13.603 2°56.099 -999 302 12 102890 66
2006-06-06 07:58:46 51°13.603 2°56.1 -999 300 12 102890 66
2006-06-06 07:58:51 51°13.603 2°56.1 -999 301 12 102890 66
2006-06-06 07:58:55 51°13.603 2°56.1 -999 301 12 102890 66
2006-06-06 07:59:01 51°13.603 2°56.1 -999 301 12 102890 66
2006-06-06 07:59:07 51°13.603 2°56.1 -999 301 12 102890 66
2006-06-06 07:59:11 51°13.603 2°56.1 -999 301 12 102890 66
2006-06-06 07:59:15 51°13.602 2°56.1 -999 302 12 102890 66
2006-06-06 07:59:21 51°13.602 2°56.1 -999 317 12.1 102890 66
2006-06-06 07:59:26 51°13.602 2°56.1 -999 317 12.1 102890 66
2006-06-06 07:59:31 51°13.602 2°56.1 -999 321 12.1 102890 66
2006-06-06 07:59:37 51°13.602 2°56.1 -999 321 12.1 102890 66
2006-06-06 07:59:41 51°13.602 2°56.1 -999 318 12.1 102890 66
2006-06-06 07:59:46 51°13.602 2°56.1 -999 312 12.1 102890 66
2006-06-06 07:59:51 51°13.602 2°56.1 -999 312 12.1 102890 66
2006-06-06 07:59:56 51°13.602 2°56.1 -999 312 12.1 102890 66
2006-06-06 08:00:01 51°13.602 2°56.1 -999 312 12.1 102890 66
2006-06-06 08:00:06 51°13.602 2°56.1 -999 318 12.1 102890 66
2006-06-06 08:00:11 51°13.602 2°56.1 -999 319 12.1 102880 66
2006-06-06 08:00:15 51°13.602 2°56.1 -999 324 12.1 102880 66
2006-06-06 08:00:21 51°13.602 2°56.1 -999 333 12.1 102890 66
2006-06-06 08:00:26 51°13.602 2°56.1 -999 335 12.1 102890 66
2006-06-06 08:00:31 51°13.602 2°56.1 -999 327 12.2 102890 66
2006-06-06 08:00:35 51°13.602 2°56.1 -999 339 12.2 102890 66
2006-06-06 08:00:41 51°13.602 2°56.1 -999 340 12.2 102890 66
2006-06-06 08:00:46 51°13.602 2°56.1 -999 340 12.2 102890 66
2006-06-06 08:00:51 51°13.602 2°56.1 -999 334 12.2 102890 66
2006-06-06 08:00:57 51°13.602 2°56.1 -999 344 12.2 102890 66
2006-06-06 08:01:01 51°13.602 2°56.1 -999 347 12.2 102890 65
2006-06-06 08:01:06 51°13.602 2°56.1 -999 2 12.2 102890 65
2006-06-06 08:01:11 51°13.602 2°56.1 -999 349 12.2 102890 65
2006-06-06 08:01:15 51°13.602 2°56.1 -999 354 12.2 102890 65
2006-06-06 08:01:21 51°13.602 2°56.1 -999 336 12.2 102890 65
2006-06-06 08:01:26 51°13.602 2°56.1 -999 328 12.2 102890 65
2006-06-06 08:01:31 51°13.602 2°56.099 -999 318 12.2 102890 65
2006-06-06 08:01:35 51°13.602 2°56.099 -999 328 12.2 102890 65
2006-06-06 08:01:41 51°13.602 2°56.099 -999 322 12.2 102880 65
2006-06-06 08:01:46 51°13.602 2°56.099 -999 328 12.2 102880 65
2006-06-06 08:01:51 51°13.602 2°56.099 -999 322 12.2 102880 65
2006-06-06 08:01:55 51°13.602 2°56.099 -999 327 12.2 102880 65
2006-06-06 08:02:01 51°13.602 2°56.099 -999 326 12.2 102890 65
2006-06-06 08:02:07 51°13.602 2°56.099 -999 343 12.2 102890 65
2006-06-06 08:02:11 51°13.602 2°56.099 -999 326 12.2 102890 65
2006-06-06 08:02:16 51°13.602 2°56.099 -999 323 12.2 102890 65
2006-06-06 08:02:21 51°13.602 2°56.099 -999 290 12.2 102890 65
2006-06-06 08:02:27 51°13.602 2°56.099 -999 -999 12.2 102890 65
2006-06-06 08:02:31 51°13.602 2°56.099 -999 291 12.2 102890 65
2006-06-06 08:02:37 51°13.602 2°56.1 -999 311 12.2 102890 65
2006-06-06 08:02:41 51°13.602 2°56.1 -999 314 12.2 102890 65
2006-06-06 08:02:46 51°13.602 2°56.1 -999 313 12.2 102890 65
2006-06-06 08:02:51 51°13.602 2°56.1 -999 312 12.2 102880 65
2006-06-06 08:02:56 51°13.602 2°56.1 -999 328 12.2 102880 65
2006-06-06 08:03:01 51°13.602 2°56.1 -999 320 12.2 102890 65
2006-06-06 08:03:06 51°13.602 2°56.1 -999 327 12.2 102890 65
2006-06-06 08:03:11 51°13.602 2°56.1 -999 328 12.2 102890 65
2006-06-06 08:03:17 51°13.602 2°56.1 -999 342 12.2 102890 65
2006-06-06 08:03:21 51°13.602 2°56.1 -999 324 12.2 102890 65
2006-06-06 08:03:26 51°13.602 2°56.1 -999 318 12.2 102890 65
2006-06-06 08:03:31 51°13.602 2°56.1 -999 319 12.2 102890 66
2006-06-06 08:03:36 51°13.602 2°56.1 -999 313 12.2 102890 66
2006-06-06 08:03:41 51°13.603 2°56.1 -999 313 12.2 102890 66
2006-06-06 08:03:46 51°13.603 2°56.1 -999 315 12.2 102890 66
2006-06-06 08:03:51 51°13.603 2°56.1 -999 308 12.2 102890 66
2006-06-06 08:03:56 51°13.603 2°56.1 -999 302 12.2 102890 66
2006-06-06 08:04:01 51°13.603 2°56.1 -999 303 12.2 102890 66
2006-06-06 08:04:06 51°13.603 2°56.1 -999 310 12.2 102890 66
2006-06-06 08:04:11 51°13.603 2°56.1 -999 322 12.2 102890 66
2006-06-06 08:04:15 51°13.603 2°56.1 -999 304 12.2 102890 66
2006-06-06 08:04:20 51°13.603 2°56.1 -999 304 12.2 102890 66
2006-06-06 08:04:27 51°13.603 2°56.1 -999 307 12.2 102890 66
2006-06-06 08:04:31 51°13.603 2°56.1 -999 300 12.2 102890 66
2006-06-06 08:04:37 51°13.603 2°56.1 -999 298 12.2 102890 66
2006-06-06 08:04:41 51°13.603 2°56.1 -999 307 12.2 102890 66
2006-06-06 08:04:46 51°13.603 2°56.1 -999 316 12.2 102890 66
2006-06-06 08:04:51 51°13.603 2°56.1 -999 321 12.2 102890 65
2006-06-06 08:04:57 51°13.603 2°56.1 -999 317 12.2 102890 65
2006-06-06 08:05:01 51°13.603 2°56.1 -999 315 12.2 102890 65
2006-06-06 08:05:06 51°13.603 2°56.1 -999 303 12.2 102890 65
2006-06-06 08:05:11 51°13.603 2°56.1 -999 305 12.2 102890 65
2006-06-06 08:05:16 51°13.603 2°56.101 -999 300 12.2 102890 65
2006-06-06 08:05:21 51°13.603 2°56.101 -999 323 12.2 102890 65
2006-06-06 08:05:26 51°13.603 2°56.101 -999 313 12.2 102890 65
2006-06-06 08:05:31 51°13.603 2°56.101 -999 228 12.2 102890 65
2006-06-06 08:05:36 51°13.603 2°56.101 -999 314 12.2 102890 65
2006-06-06 08:05:41 51°13.603 2°56.101 -999 322 12.2 102890 65
2006-06-06 08:05:46 51°13.603 2°56.1 -999 323 12.2 102890 65
2006-06-06 08:05:51 51°13.603 2°56.1 -999 323 12.2 102890 65
2006-06-06 08:05:56 51°13.603 2°56.101 -999 327 12.2 102890 65
2006-06-06 08:06:01 51°13.603 2°56.101 -999 322 12.2 102890 65
2006-06-06 08:06:06 51°13.603 2°56.101 -999 326 12.2 102890 65
2006-06-06 08:06:11 51°13.603 2°56.101 -999 326 12.2 102890 65
2006-06-06 08:06:15 51°13.603 2°56.101 -999 326 12.2 102890 65
2006-06-06 08:06:21 51°13.603 2°56.101 -999 318 12.2 102890 65
2006-06-06 08:06:26 51°13.603 2°56.101 -999 323 12.2 102890 65
2006-06-06 08:06:31 51°13.603 2°56.1 -999 325 12.2 102890 65
2006-06-06 08:06:37 51°13.603 2°56.1 -999 321 12.2 102890 65
2006-06-06 08:06:41 51°13.603 2°56.1 -999 321 12.2 102890 65
2006-06-06 08:06:46 51°13.603 2°56.1 -999 320 12.2 102890 65
2006-06-06 08:06:51 51°13.603 2°56.1 -999 320 12.2 102890 65
2006-06-06 08:06:55 51°13.603 2°56.1 -999 320 12.2 102890 65
2006-06-06 08:07:01 51°13.603 2°56.1 -999 320 12.2 102890 65
2006-06-06 08:07:06 51°13.603 2°56.1 -999 320 12.2 102890 65
2006-06-06 08:07:11 51°13.603 2°56.1 -999 319 12.2 102890 65
2006-06-06 08:07:14 51°13.603 2°56.1 -999 318 12.2 102890 65
2006-06-06 08:07:21 51°13.603 2°56.1 -999 318 12.2 102890 65
2006-06-06 08:07:26 51°13.603 2°56.1 -999 318 12.2 102890 65
2006-06-06 08:07:31 51°13.603 2°56.1 -999 318 12.2 102890 65
2006-06-06 08:07:35 51°13.603 2°56.1 -999 318 12.2 102890 65
2006-06-06 08:07:41 51°13.603 2°56.1 -999 318 12.2 102900 65
2006-06-06 08:07:45 51°13.603 2°56.1 -999 318 12.2 102900 65
2006-06-06 08:07:51 51°13.603 2°56.1 -999 318 12.2 102890 65
2006-06-06 08:07:55 51°13.603 2°56.1 -999 318 12.2 102890 65
2006-06-06 08:08:01 51°13.603 2°56.1 -999 318 12.2 102890 65
2006-06-06 08:08:06 51°13.603 2°56.1 -999 318 12.2 102890 65
2006-06-06 08:08:11 51°13.603 2°56.1 -999 318 12.3 102890 65
2006-06-06 08:08:15 51°13.603 2°56.1 -999 318 12.3 102890 65
2006-06-06 08:08:21 51°13.603 2°56.1 -999 317 12.3 102890 65
2006-06-06 08:08:27 51°13.603 2°56.1 -999 318 12.3 102890 65
2006-06-06 08:08:31 51°13.603 2°56.1 -999 317 12.2 102890 65
2006-06-06 08:08:35 51°13.603 2°56.1 -999 227 12.2 102890 65
2006-06-06 08:08:41 51°13.603 2°56.1 -999 310 12.3 102890 65
2006-06-06 08:08:47 51°13.603 2°56.1 -999 296 12.3 102890 65
2006-06-06 08:08:51 51°13.603 2°56.1 -999 294 12.3 102890 65
2006-06-06 08:08:56 51°13.603 2°56.1 -999 294 12.3 102890 65
2006-06-06 08:09:01 51°13.603 2°56.1 -999 294 12.3 102890 65
2006-06-06 08:09:07 51°13.603 2°56.1 -999 285 12.3 102890 65
2006-06-06 08:09:11 51°13.603 2°56.1 -999 285 12.3 102890 65
2006-06-06 08:09:17 51°13.603 2°56.1 -999 286 12.3 102890 65
2006-06-06 08:09:21 51°13.603 2°56.1 -999 286 12.3 102890 65
2006-06-06 08:09:26 51°13.603 2°56.1 -999 312 12.3 102890 65
2006-06-06 08:09:31 51°13.603 2°56.1 -999 295 12.3 102890 65
2006-06-06 08:09:36 51°13.603 2°56.1 -999 291 12.3 102890 65
2006-06-06 08:09:41 51°13.603 2°56.1 -999 266 12.3 102890 65
2006-06-06 08:09:46 51°13.603 2°56.1 -999 272 12.3 102890 65
2006-06-06 08:09:50 51°13.603 2°56.1 -999 270 12.3 102890 65
2006-06-06 08:09:57 51°13.603 2°56.1 -999 269 12.3 102890 65
2006-06-06 08:10:01 51°13.603 2°56.1 -999 273 12.3 102890 65
2006-06-06 08:10:06 51°13.603 2°56.1 -999 272 12.3 102890 65
2006-06-06 08:10:11 51°13.603 2°56.1 -999 250 12.3 102890 65
2006-06-06 08:10:15 51°13.603 2°56.1 -999 250 12.3 102890 65
2006-06-06 08:10:21 51°13.603 2°56.1 -999 248 12.3 102890 65
2006-06-06 08:10:26 51°13.603 2°56.1 -999 240 12.3 102890 65
2006-06-06 08:10:31 51°13.603 2°56.1 -999 234 12.3 102890 65
2006-06-06 08:10:35 51°13.603 2°56.1 -999 287 12.3 102890 65
2006-06-06 08:10:41 51°13.603 2°56.1 -999 290 12.3 102890 65
2006-06-06 08:10:46 51°13.603 2°56.1 -999 286 12.3 102890 65
2006-06-06 08:10:51 51°13.603 2°56.1 -999 260 12.3 102890 65
2006-06-06 08:10:56 51°13.603 2°56.1 -999 281 12.3 102890 65
2006-06-06 08:11:01 51°13.603 2°56.1 -999 289 12.3 102890 65
2006-06-06 08:11:06 51°13.603 2°56.1 -999 291 12.3 102890 65
2006-06-06 08:11:11 51°13.603 2°56.101 -999 296 12.3 102890 65
2006-06-06 08:11:15 51°13.603 2°56.101 -999 281 12.3 102890 65
2006-06-06 08:11:21 51°13.603 2°56.101 -999 253 12.3 102890 65
2006-06-06 08:11:27 51°13.603 2°56.1 -999 -999 12.3 102890 65
2006-06-06 08:11:31 51°13.604 2°56.1 -999 284 12.3 102890 65
2006-06-06 08:11:35 51°13.603 2°56.1 -999 286 12.3 102890 65
2006-06-06 08:11:41 51°13.604 2°56.1 -999 284 12.3 102890 65
2006-06-06 08:11:46 51°13.603 2°56.1 -999 277 12.3 102890 65
2006-06-06 08:11:51 51°13.604 2°56.1 -999 282 12.3 102890 65
2006-06-06 08:11:56 51°13.604 2°56.1 -999 281 12.3 102890 65
2006-06-06 08:12:01 51°13.604 2°56.1 -999 280 12.3 102890 65
2006-06-06 08:12:06 51°13.604 2°56.1 -999 281 12.3 102890 65
2006-06-06 08:12:11 51°13.604 2°56.1 -999 233 12.3 102890 65
2006-06-06 08:12:16 51°13.604 2°56.1 -999 260 12.3 102890 65
2006-06-06 08:12:21 51°13.604 2°56.1 -999 263 12.3 102890 65
2006-06-06 08:12:27 51°13.604 2°56.1 -999 264 12.3 102890 65
2006-06-06 08:12:31 51°13.604 2°56.1 -999 264 12.3 102890 65
2006-06-06 08:12:37 51°13.604 2°56.1 -999 250 12.3 102890 65
2006-06-06 08:12:41 51°13.603 2°56.1 -999 243 12.3 102900 65
2006-06-06 08:12:46 51°13.603 2°56.1 -999 241 12.3 102900 65
2006-06-06 08:12:51 51°13.603 2°56.1 -999 235 12.3 102890 65
2006-06-06 08:12:55 51°13.603 2°56.1 -999 238 12.3 102890 65
2006-06-06 08:13:01 51°13.603 2°56.1 -999 257 12.3 102890 65
2006-06-06 08:13:06 51°13.603 2°56.1 -999 256 12.3 102890 65
2006-06-06 08:13:11 51°13.603 2°56.1 -999 246 12.4 102890 65
2006-06-06 08:13:16 51°13.603 2°56.1 -999 259 12.4 102890 65
2006-06-06 08:13:21 51°13.603 2°56.1 -999 253 12.3 102890 65
2006-06-06 08:13:26 51°13.603 2°56.1 -999 247 12.3 102890 65
2006-06-06 08:13:31 51°13.603 2°56.1 -999 244 12.3 102890 65
2006-06-06 08:13:35 51°13.603 2°56.1 -999 248 12.3 102890 65
2006-06-06 08:13:41 51°13.603 2°56.1 -999 251 12.3 102890 65
2006-06-06 08:13:46 51°13.603 2°56.1 -999 269 12.3 102890 65
2006-06-06 08:13:51 51°13.603 2°56.1 -999 259 12.3 102890 65
2006-06-06 08:13:55 51°13.603 2°56.1 -999 247 12.3 102890 65
2006-06-06 08:14:01 51°13.603 2°56.1 -999 243 12.3 102890 65
2006-06-06 08:14:06 51°13.603 2°56.1 -999 257 12.3 102890 65
2006-06-06 08:14:11 51°13.603 2°56.1 -999 262 12.3 102890 65
2006-06-06 08:14:16 51°13.603 2°56.1 -999 264 12.3 102890 65
2006-06-06 08:14:21 51°13.603 2°56.1 -999 261 12.3 102900 65
2006-06-06 08:14:26 51°13.603 2°56.1 -999 259 12.3 102900 65
2006-06-06 08:14:31 51°13.603 2°56.1 -999 259 12.3 102890 65
2006-06-06 08:14:36 51°13.603 2°56.1 -999 261 12.3 102890 65
2006-06-06 08:14:41 51°13.603 2°56.1 -999 265 12.3 102900 65
2006-06-06 08:14:46 51°13.603 2°56.1 -999 274 12.3 102900 65
2006-06-06 08:14:51 51°13.603 2°56.1 -999 263 12.3 102900 65
2006-06-06 08:14:57 51°13.603 2°56.1 -999 269 12.3 102900 65
2006-06-06 08:15:01 51°13.603 2°56.1 -999 269 12.3 102890 65
2006-06-06 08:15:05 51°13.603 2°56.1 -999 271 12.3 102890 65
2006-06-06 08:15:11 51°13.603 2°56.1 -999 275 12.2 102890 65
2006-06-06 08:15:15 51°13.603 2°56.1 -999 278 12.2 102890 65
2006-06-06 08:15:21 51°13.603 2°56.1 -999 279 12.2 102890 65
2006-06-06 08:15:26 51°13.603 2°56.1 -999 279 12.2 102890 65
2006-06-06 08:15:31 51°13.603 2°56.1 -999 278 12.2 102890 65
2006-06-06 08:15:37 51°13.603 2°56.1 -999 285 12.2 102890 65
2006-06-06 08:15:41 51°13.603 2°56.1 -999 274 12.2 102890 65
2006-06-06 08:15:47 51°13.603 2°56.1 -999 272 12.2 102890 65
2006-06-06 08:15:51 51°13.603 2°56.1 -999 261 12.2 102890 65
2006-06-06 08:15:56 51°13.603 2°56.1 -999 262 12.2 102890 65
2006-06-06 08:16:01 51°13.603 2°56.1 -999 267 12.2 102890 65
2006-06-06 08:16:06 51°13.603 2°56.1 -999 261 12.2 102890 65
2006-06-06 08:16:11 51°13.602 2°56.099 -999 236 12.2 102890 65
2006-06-06 08:16:16 51°13.602 2°56.099 -999 246 12.2 102890 65
2006-06-06 08:16:21 51°13.602 2°56.099 -999 232 12.2 102890 65
2006-06-06 08:16:26 51°13.602 2°56.099 -999 235 12.2 102890 65
2006-06-06 08:16:31 51°13.603 2°56.099 -999 229 12.2 102890 65
2006-06-06 08:16:36 51°13.603 2°56.099 -999 228 12.2 102890 65
2006-06-06 08:16:41 51°13.603 2°56.099 -999 223 12.2 102890 65
2006-06-06 08:16:46 51°13.603 2°56.099 -999 234 12.2 102890 65
2006-06-06 08:16:51 51°13.603 2°56.099 -999 236 12.2 102890 65
2006-06-06 08:16:56 51°13.603 2°56.099 -999 236 12.2 102890 65
2006-06-06 08:17:01 51°13.603 2°56.099 -999 232 12.2 102890 65
2006-06-06 08:17:07 51°13.603 2°56.099 -999 231 12.2 102890 65
2006-06-06 08:17:11 51°13.603 2°56.099 -999 232 12.2 102900 65
2006-06-06 08:17:15 51°13.603 2°56.099 -999 234 12.2 102900 65
2006-06-06 08:17:21 51°13.603 2°56.099 -999 231 12.2 102890 65
2006-06-06 08:17:25 51°13.603 2°56.099 -999 225 12.2 102890 65
2006-06-06 08:17:31 51°13.603 2°56.099 -999 217 12.2 102890 65
2006-06-06 08:17:35 51°13.603 2°56.099 -999 234 12.2 102890 65
2006-06-06 08:17:41 51°13.603 2°56.099 -999 222 12.2 102890 66
2006-06-06 08:17:47 51°13.603 2°56.099 -999 225 12.2 102890 66
2006-06-06 08:17:51 51°13.603 2°56.099 -999 239 12.2 102890 66
2006-06-06 08:17:56 51°13.603 2°56.099 -999 217 12.2 102890 66
2006-06-06 08:18:01 51°13.603 2°56.099 -999 224 12.2 102890 66
2006-06-06 08:18:06 51°13.603 2°56.099 -999 213 12.2 102890 66
2006-06-06 08:18:11 51°13.603 2°56.099 -999 226 12.2 102890 66
2006-06-06 08:18:15 51°13.603 2°56.099 -999 226 12.2 102890 66
2006-06-06 08:18:21 51°13.603 2°56.099 -999 230 12.2 102900 66
2006-06-06 08:18:26 51°13.603 2°56.099 -999 -999 12.2 102900 66
2006-06-06 08:18:31 51°13.603 2°56.099 -999 262 12.2 102890 66
2006-06-06 08:18:35 51°13.603 2°56.099 -999 255 12.2 102890 66
2006-06-06 08:18:41 51°13.603 2°56.099 -999 250 12.2 102890 66
2006-06-06 08:18:46 51°13.603 2°56.099 -999 250 12.2 102890 66
2006-06-06 08:18:51 51°13.603 2°56.099 -999 248 12.2 102890 66
2006-06-06 08:18:56 51°13.603 2°56.099 -999 254 12.2 102890 66
2006-06-06 08:19:01 51°13.603 2°56.099 -999 244 12.2 102890 66
2006-06-06 08:19:06 51°13.602 2°56.099 -999 260 12.2 102890 66
2006-06-06 08:19:11 51°13.602 2°56.099 -999 258 12.2 102890 66
2006-06-06 08:19:15 51°13.602 2°56.099 -999 260 12.2 102890 66
2006-06-06 08:19:20 51°13.602 2°56.099 -999 292 12.2 102890 66
2006-06-06 08:19:26 51°13.603 2°56.099 -999 273 12.2 102890 66
2006-06-06 08:19:31 51°13.603 2°56.099 -999 261 12.2 102900 66
2006-06-06 08:19:35 51°13.603 2°56.099 -999 264 12.2 102900 66
2006-06-06 08:19:41 51°13.603 2°56.099 -999 265 12.3 102900 66
2006-06-06 08:19:45 51°13.603 2°56.099 -999 269 12.3 102900 66
2006-06-06 08:19:51 51°13.603 2°56.099 -999 269 12.3 102890 66
2006-06-06 08:19:56 51°13.603 2°56.099 -999 264 12.3 102890 66
2006-06-06 08:20:01 51°13.603 2°56.099 -999 264 12.3 102890 66
2006-06-06 08:20:06 51°13.603 2°56.099 -999 259 12.3 102890 66
2006-06-06 08:20:11 51°13.603 2°56.099 -999 270 12.3 102900 66
2006-06-06 08:20:16 51°13.603 2°56.099 -999 254 12.3 102900 66
2006-06-06 08:20:21 51°13.603 2°56.099 -999 262 12.3 102890 66
2006-06-06 08:20:26 51°13.603 2°56.099 -999 268 12.3 102890 66
2006-06-06 08:20:31 51°13.603 2°56.099 -999 268 12.3 102890 66
2006-06-06 08:20:37 51°13.603 2°56.099 -999 264 12.3 102890 66
2006-06-06 08:20:41 51°13.603 2°56.099 -999 263 12.3 102890 66
2006-06-06 08:20:46 51°13.603 2°56.099 -999 254 12.3 102890 66
2006-06-06 08:20:51 51°13.603 2°56.099 -999 262 12.3 102890 65
2006-06-06 08:20:56 51°13.603 2°56.099 -999 264 12.3 102890 65
2006-06-06 08:21:01 51°13.603 2°56.099 -999 265 12.3 102900 65
2006-06-06 08:21:06 51°13.603 2°56.099 -999 247 12.3 102900 65
2006-06-06 08:21:11 51°13.603 2°56.099 -999 266 12.2 102900 65
2006-06-06 08:21:16 51°13.603 2°56.099 -999 269 12.2 102900 65
2006-06-06 08:21:21 51°13.603 2°56.099 -999 265 12.2 102890 65
2006-06-06 08:21:26 51°13.603 2°56.099 -999 268 12.2 102890 65
2006-06-06 08:21:31 51°13.603 2°56.099 -999 259 12.2 102900 65
2006-06-06 08:21:37 51°13.603 2°56.099 -999 252 12.2 102900 65
2006-06-06 08:21:41 51°13.603 2°56.099 -999 256 12.2 102890 65
2006-06-06 08:21:46 51°13.603 2°56.099 -999 241 12.2 102890 65
2006-06-06 08:21:51 51°13.603 2°56.099 -999 252 12.2 102890 65
2006-06-06 08:21:55 51°13.603 2°56.099 -999 256 12.2 102890 65
2006-06-06 08:22:01 51°13.603 2°56.099 -999 238 12.2 102890 65
2006-06-06 08:22:06 51°13.603 2°56.099 -999 226 12.2 102890 65
2006-06-06 08:22:11 51°13.603 2°56.099 -999 250 12.2 102890 66
2006-06-06 08:22:17 51°13.603 2°56.099 -999 256 12.2 102890 66
2006-06-06 08:22:21 51°13.603 2°56.099 -999 241 12.2 102900 66
2006-06-06 08:22:26 51°13.603 2°56.099 -999 247 12.2 102900 66
2006-06-06 08:22:31 51°13.603 2°56.099 -999 244 12.2 102900 66
2006-06-06 08:22:37 51°13.603 2°56.099 -999 265 12.2 102900 66
2006-06-06 08:22:41 51°13.603 2°56.099 -999 266 12.2 102890 66
2006-06-06 08:22:46 51°13.603 2°56.099 -999 260 12.2 102890 66
2006-06-06 08:22:51 51°13.603 2°56.099 -999 255 12.2 102900 66
2006-06-06 08:22:56 51°13.603 2°56.099 -999 266 12.2 102900 66
2006-06-06 08:23:01 51°13.603 2°56.099 -999 271 12.2 102900 66
2006-06-06 08:23:06 51°13.603 2°56.099 -999 280 12.2 102900 66
2006-06-06 08:23:11 51°13.603 2°56.099 -999 258 12.2 102900 66
2006-06-06 08:23:16 51°13.603 2°56.099 -999 258 12.2 102900 66
2006-06-06 08:23:21 51°13.603 2°56.099 -999 246 12.2 102900 66
2006-06-06 08:23:26 51°13.603 2°56.099 -999 255 12.2 102900 66
2006-06-06 08:23:31 51°13.603 2°56.099 -999 267 12.2 102900 66
2006-06-06 08:23:37 51°13.602 2°56.099 -999 265 12.2 102900 66
2006-06-06 08:23:41 51°13.602 2°56.099 -999 275 12.2 102900 66
2006-06-06 08:23:46 51°13.602 2°56.099 -999 264 12.2 102900 66
2006-06-06 08:23:51 51°13.602 2°56.099 -999 252 12.2 102900 66
2006-06-06 08:23:57 51°13.602 2°56.098 -999 269 12.2 102900 66
2006-06-06 08:24:01 51°13.602 2°56.098 -999 256 12.2 102900 66
2006-06-06 08:24:06 51°13.602 2°56.098 -999 258 12.2 102900 66
2006-06-06 08:24:11 51°13.602 2°56.098 -999 257 12.2 102900 66
2006-06-06 08:24:16 51°13.602 2°56.098 -999 259 12.2 102900 66
2006-06-06 08:24:21 51°13.601 2°56.098 -999 242 12.2 102890 66
2006-06-06 08:24:26 51°13.601 2°56.098 -999 243 12.2 102890 66
2006-06-06 08:24:31 51°13.601 2°56.098 -999 251 12.2 102890 66
2006-06-06 08:24:35 51°13.601 2°56.098 -999 262 12.2 102890 66
2006-06-06 08:24:41 51°13.601 2°56.098 -999 248 12.2 102890 66
2006-06-06 08:24:47 51°13.601 2°56.098 -999 252 12.2 102890 66
2006-06-06 08:24:51 51°13.601 2°56.098 -999 242 12.2 102900 66
2006-06-06 08:24:56 51°13.601 2°56.098 -999 252 12.2 102900 66
2006-06-06 08:25:01 51°13.601 2°56.098 -999 252 12.2 102900 66
2006-06-06 08:25:07 51°13.602 2°56.098 -999 244 12.2 102900 66
2006-06-06 08:25:11 51°13.602 2°56.098 -999 243 12.2 102900 66
2006-06-06 08:25:16 51°13.602 2°56.098 -999 284 12.2 102900 66
2006-06-06 08:25:21 51°13.602 2°56.098 -999 262 12.2 102890 66
2006-06-06 08:25:26 51°13.602 2°56.098 -999 252 12.2 102890 66
2006-06-06 08:25:31 51°13.602 2°56.098 -999 268 12.2 102900 66
2006-06-06 08:25:37 51°13.602 2°56.098 -999 293 12.2 102900 66
2006-06-06 08:25:41 51°13.602 2°56.098 -999 285 12.2 102900 66
2006-06-06 08:25:46 51°13.602 2°56.098 -999 292 12.2 102900 66
2006-06-06 08:25:51 51°13.602 2°56.098 -999 270 12.2 102900 66
2006-06-06 08:25:57 51°13.602 2°56.098 -999 270 12.2 102900 66
2006-06-06 08:26:01 51°13.602 2°56.098 -999 276 12.2 102900 66
2006-06-06 08:26:06 51°13.602 2°56.098 -999 276 12.2 102900 66
2006-06-06 08:26:11 51°13.603 2°56.098 -999 279 12.2 102900 66
2006-06-06 08:26:15 51°13.603 2°56.098 -999 263 12.2 102900 66
2006-06-06 08:26:21 51°13.603 2°56.098 -999 264 12.2 102900 66
2006-06-06 08:26:26 51°13.603 2°56.098 -999 263 12.2 102900 66
2006-06-06 08:26:31 51°13.603 2°56.098 -999 253 12.2 102900 66
2006-06-06 08:26:35 51°13.603 2°56.098 -999 250 12.2 102900 66
2006-06-06 08:26:41 51°13.602 2°56.098 -999 294 12.2 102900 66
2006-06-06 08:26:47 51°13.602 2°56.098 -999 296 12.2 102900 66
2006-06-06 08:26:51 51°13.602 2°56.098 -999 290 12.2 102900 66
2006-06-06 08:26:56 51°13.602 2°56.098 -999 277 12.2 102900 66
2006-06-06 08:27:01 51°13.602 2°56.098 -999 259 12.2 102900 66
2006-06-06 08:27:06 51°13.602 2°56.098 -999 276 12.2 102900 66
2006-06-06 08:27:11 51°13.602 2°56.098 -999 272 12.2 102900 66
2006-06-06 08:27:17 51°13.602 2°56.098 -999 261 12.2 102900 66
2006-06-06 08:27:21 51°13.602 2°56.098 -999 268 12.2 102900 66
2006-06-06 08:27:27 51°13.602 2°56.098 -999 -999 12.2 102900 66
2006-06-06 08:27:31 51°13.602 2°56.098 -999 268 12.2 102900 66
2006-06-06 08:27:36 51°13.602 2°56.098 -999 276 12.2 102900 66
2006-06-06 08:27:41 51°13.602 2°56.098 -999 281 12.2 102900 66
2006-06-06 08:27:46 51°13.602 2°56.098 -999 257 12.2 102900 66
2006-06-06 08:27:51 51°13.602 2°56.098 -999 261 12.2 102900 66
2006-06-06 08:27:55 51°13.602 2°56.098 -999 269 12.2 102900 66
2006-06-06 08:28:01 51°13.602 2°56.098 -999 285 12.2 102900 66
2006-06-06 08:28:07 51°13.602 2°56.098 -999 273 12.2 102900 66
2006-06-06 08:28:11 51°13.602 2°56.098 -999 269 12.2 102900 66
2006-06-06 08:28:16 51°13.602 2°56.098 -999 281 12.2 102900 66
2006-06-06 08:28:21 51°13.602 2°56.098 -999 263 12.2 102900 66
2006-06-06 08:28:26 51°13.602 2°56.099 -999 259 12.2 102900 66
2006-06-06 08:28:31 51°13.602 2°56.099 -999 280 12.2 102900 66
2006-06-06 08:28:36 51°13.602 2°56.099 -999 274 12.2 102900 66
2006-06-06 08:28:41 51°13.602 2°56.099 -999 267 12.2 102900 66
2006-06-06 08:28:46 51°13.602 2°56.099 -999 265 12.2 102900 66
2006-06-06 08:28:51 51°13.602 2°56.099 -999 281 12.2 102900 66
2006-06-06 08:28:57 51°13.603 2°56.099 -999 279 12.2 102900 66
2006-06-06 08:29:01 51°13.603 2°56.099 -999 281 12.2 102900 66
2006-06-06 08:29:07 51°13.603 2°56.099 -999 294 12.2 102900 66
2006-06-06 08:29:11 51°13.603 2°56.099 -999 277 12.2 102900 66
2006-06-06 08:29:17 51°13.603 2°56.099 -999 286 12.2 102900 66
2006-06-06 08:29:21 51°13.603 2°56.099 -999 282 12.2 102900 66
2006-06-06 08:29:26 51°13.603 2°56.099 -999 302 12.2 102900 66
2006-06-06 08:29:31 51°13.603 2°56.099 -999 294 12.2 102900 66
2006-06-06 08:29:36 51°13.603 2°56.099 -999 296 12.2 102900 66
2006-06-06 08:29:41 51°13.603 2°56.099 -999 288 12.2 102900 66
2006-06-06 08:29:47 51°13.603 2°56.099 -999 286 12.2 102900 66
2006-06-06 08:29:51 51°13.603 2°56.099 -999 289 12.2 102900 66
2006-06-06 08:29:57 51°13.603 2°56.099 -999 286 12.2 102900 66
2006-06-06 08:30:01 51°13.603 2°56.099 -999 279 12.2 102900 67
2006-06-06 08:30:06 51°13.603 2°56.099 -999 274 12.2 102900 67
2006-06-06 08:30:11 51°13.603 2°56.099 -999 273 12.2 102900 67
2006-06-06 08:30:17 51°13.603 2°56.099 -999 278 12.2 102900 67
2006-06-06 08:30:21 51°13.603 2°56.099 -999 278 12.2 102900 67
2006-06-06 08:30:26 51°13.604 2°56.099 -999 290 12.2 102900 67
2006-06-06 08:30:31 51°13.604 2°56.099 -999 246 12.2 102900 67
2006-06-06 08:30:35 51°13.604 2°56.099 -999 255 12.2 102900 67
2006-06-06 08:30:41 51°13.604 2°56.099 -999 246 12.2 102900 67
2006-06-06 08:30:46 51°13.604 2°56.099 -999 241 12.2 102900 67
2006-06-06 08:30:51 51°13.604 2°56.099 -999 258 12.2 102900 67
2006-06-06 08:30:55 51°13.604 2°56.099 -999 264 12.2 102900 67
2006-06-06 08:31:01 51°13.604 2°56.099 -999 264 12.2 102900 67
2006-06-06 08:31:06 51°13.604 2°56.099 -999 237 12.2 102900 67
2006-06-06 08:31:11 51°13.604 2°56.099 -999 208 12.2 102900 67
2006-06-06 08:31:17 51°13.603 2°56.099 -999 227 12.2 102900 67
2006-06-06 08:31:21 51°13.603 2°56.099 -999 218 12.2 102900 67
2006-06-06 08:31:27 51°13.603 2°56.099 -999 214 12.2 102900 67
2006-06-06 08:31:31 51°13.603 2°56.099 -999 211 12.2 102900 67
2006-06-06 08:31:37 51°13.603 2°56.1 -999 206 12.2 102900 67
2006-06-06 08:31:41 51°13.603 2°56.099 -999 208 12.2 102900 67
2006-06-06 08:31:46 51°13.603 2°56.099 -999 218 12.2 102900 67
2006-06-06 08:31:51 51°13.603 2°56.099 -999 221 12.2 102900 67
2006-06-06 08:31:56 51°13.603 2°56.099 -999 226 12.2 102900 67
2006-06-06 08:32:01 51°13.603 2°56.099 -999 253 12.2 102900 67
2006-06-06 08:32:06 51°13.604 2°56.099 -999 250 12.2 102900 67
2006-06-06 08:32:11 51°13.603 2°56.099 -999 256 12.2 102900 67
2006-06-06 08:32:16 51°13.603 2°56.099 -999 266 12.2 102900 67
2006-06-06 08:32:21 51°13.604 2°56.099 -999 252 12.2 102900 67
2006-06-06 08:32:26 51°13.604 2°56.099 -999 253 12.2 102900 67
2006-06-06 08:32:30 51°13.604 2°56.099 -999 239 12.2 102900 67
2006-06-06 08:32:36 51°13.604 2°56.099 -999 237 12.2 102900 67
2006-06-06 08:32:41 51°13.604 2°56.099 -999 237 12.1 102900 67
2006-06-06 08:32:46 51°13.604 2°56.099 -999 239 12.1 102900 67
2006-06-06 08:32:51 51°13.604 2°56.099 -999 228 12.1 102900 67
2006-06-06 08:32:55 51°13.604 2°56.099 -999 242 12.1 102900 67
2006-06-06 08:33:01 51°13.604 2°56.099 -999 244 12.1 102900 67
2006-06-06 08:33:06 51°13.604 2°56.099 -999 252 12.1 102900 67
2006-06-06 08:33:11 51°13.604 2°56.099 -999 262 12.2 102900 67
2006-06-06 08:33:16 51°13.604 2°56.099 -999 279 12.2 102900 67
2006-06-06 08:33:21 51°13.604 2°56.099 -999 265 12.1 102900 67
2006-06-06 08:33:27 51°13.604 2°56.099 -999 260 12.1 102900 67
2006-06-06 08:33:31 51°13.604 2°56.099 -999 254 12.2 102900 67
2006-06-06 08:33:35 51°13.604 2°56.099 -999 264 12.2 102900 67
2006-06-06 08:33:41 51°13.604 2°56.099 -999 273 12.2 102900 67
2006-06-06 08:33:46 51°13.604 2°56.099 -999 279 12.2 102900 67
2006-06-06 08:33:51 51°13.604 2°56.099 -999 271 12.2 102910 67
2006-06-06 08:33:56 51°13.604 2°56.099 -999 262 12.2 102910 67
2006-06-06 08:34:01 51°13.604 2°56.099 -999 258 12.2 102900 67
2006-06-06 08:34:06 51°13.604 2°56.099 -999 264 12.2 102900 67
2006-06-06 08:34:11 51°13.604 2°56.099 -999 251 12.2 102900 67
2006-06-06 08:34:14 51°13.604 2°56.099 -999 252 12.2 102900 67
2006-06-06 08:34:21 51°13.604 2°56.099 -999 261 12.2 102910 67
2006-06-06 08:34:26 51°13.604 2°56.099 -999 257 12.2 102910 67
2006-06-06 08:34:31 51°13.604 2°56.1 -999 270 12.2 102910 67
2006-06-06 08:34:35 51°13.604 2°56.1 -999 265 12.2 102910 67
2006-06-06 08:34:41 51°13.604 2°56.1 -999 268 12.2 102900 66
2006-06-06 08:34:46 51°13.604 2°56.1 -999 269 12.2 102900 66
2006-06-06 08:34:51 51°13.604 2°56.1 -999 269 12.1 102900 66
2006-06-06 08:34:55 51°13.605 2°56.1 -999 256 12.1 102900 66
2006-06-06 08:35:01 51°13.605 2°56.1 -999 260 12.1 102900 66
2006-06-06 08:35:06 51°13.605 2°56.1 -999 265 12.1 102900 66
2006-06-06 08:35:11 51°13.605 2°56.1 -999 278 12.1 102900 66
2006-06-06 08:35:16 51°13.605 2°56.1 -999 273 12.1 102900 66
2006-06-06 08:35:21 51°13.605 2°56.1 -999 235 12.1 102900 66
2006-06-06 08:35:26 51°13.605 2°56.1 -999 261 12.1 102900 66
2006-06-06 08:35:31 51°13.605 2°56.1 -999 247 12.1 102900 66
2006-06-06 08:35:36 51°13.605 2°56.1 -999 268 12.1 102900 66
2006-06-06 08:35:41 51°13.605 2°56.1 -999 247 12.1 102900 66
2006-06-06 08:35:47 51°13.604 2°56.1 -999 273 12.1 102900 66
2006-06-06 08:35:51 51°13.604 2°56.1 -999 228 12.1 102900 67
2006-06-06 08:35:57 51°13.604 2°56.1 -999 235 12.1 102900 67
2006-06-06 08:36:01 51°13.604 2°56.1 -999 242 12.1 102900 67
2006-06-06 08:36:06 51°13.604 2°56.1 -999 263 12.1 102900 67
2006-06-06 08:36:11 51°13.604 2°56.1 -999 269 12.1 102910 67
2006-06-06 08:36:15 51°13.604 2°56.1 -999 254 12.1 102910 67
2006-06-06 08:36:21 51°13.604 2°56.1 -999 265 12.1 102910 67
2006-06-06 08:36:26 51°13.604 2°56.1 -999 254 12.1 102910 67
2006-06-06 08:36:31 51°13.604 2°56.1 -999 247 12.2 102900 67
2006-06-06 08:36:37 51°13.604 2°56.1 -999 255 12.2 102900 67
2006-06-06 08:36:41 51°13.604 2°56.1 -999 250 12.1 102910 67
2006-06-06 08:36:46 51°13.604 2°56.1 -999 241 12.1 102910 67
2006-06-06 08:36:51 51°13.604 2°56.1 -999 249 12.2 102900 66
2006-06-06 08:36:56 51°13.604 2°56.1 -999 253 12.2 102900 66
2006-06-06 08:37:01 51°13.604 2°56.099 -999 255 12.1 102900 66
2006-06-06 08:37:06 51°13.604 2°56.099 -999 254 12.1 102900 66
2006-06-06 08:37:11 51°13.603 2°56.1 -999 256 12.2 102910 66
2006-06-06 08:37:14 51°13.604 2°56.099 -999 253 12.2 102910 66
2006-06-06 08:37:21 51°13.603 2°56.099 -999 243 12.1 102910 66
2006-06-06 08:37:26 51°13.603 2°56.1 -999 243 12.1 102910 66
2006-06-06 08:37:30 51°13.603 2°56.1 -999 238 12.1 102900 66
2006-06-06 08:37:36 51°13.604 2°56.1 -999 245 12.1 102900 66
2006-06-06 08:37:41 51°13.604 2°56.1 -999 245 12.1 102910 66
2006-06-06 08:37:46 51°13.604 2°56.1 -999 254 12.1 102910 66
2006-06-06 08:37:51 51°13.603 2°56.1 -999 240 12.1 102910 66
2006-06-06 08:37:56 51°13.603 2°56.1 -999 257 12.1 102910 66
2006-06-06 08:38:01 51°13.603 2°56.1 -999 229 12.1 102910 66
2006-06-06 08:38:06 51°13.603 2°56.1 -999 282 12.1 102910 66
2006-06-06 08:38:11 51°13.603 2°56.1 -999 261 12.1 102910 66
2006-06-06 08:38:14 51°13.603 2°56.1 -999 254 12.1 102910 66
2006-06-06 08:38:21 51°13.603 2°56.1 -999 240 12.1 102910 66
2006-06-06 08:38:26 51°13.603 2°56.1 -999 259 12.1 102910 66
2006-06-06 08:38:31 51°13.603 2°56.1 -999 258 12.1 102900 66
2006-06-06 08:38:35 51°13.603 2°56.101 -999 260 12.1 102900 66
2006-06-06 08:38:41 51°13.603 2°56.101 -999 261 12.1 102910 66
2006-06-06 08:38:46 51°13.603 2°56.101 -999 262 12.1 102910 66
2006-06-06 08:38:51 51°13.603 2°56.1 -999 258 12.1 102910 66
2006-06-06 08:38:56 51°13.603 2°56.1 -999 254 12.1 102910 66
2006-06-06 08:39:01 51°13.603 2°56.1 -999 254 12.1 102910 66
2006-06-06 08:39:06 51°13.603 2°56.101 -999 257 12.1 102910 66
2006-06-06 08:39:11 51°13.603 2°56.1 -999 273 12.1 102910 66
2006-06-06 08:39:17 51°13.603 2°56.101 -999 256 12.1 102910 66
2006-06-06 08:39:21 51°13.603 2°56.101 -999 241 12.1 102910 67
2006-06-06 08:39:26 51°13.604 2°56.101 -999 -999 12.1 102910 67
2006-06-06 08:39:31 51°13.603 2°56.101 -999 258 12.1 102910 67
2006-06-06 08:39:35 51°13.603 2°56.1 -999 253 12.1 102910 67
2006-06-06 08:39:41 51°13.603 2°56.1 -999 263 12.1 102910 67
2006-06-06 08:39:46 51°13.603 2°56.1 -999 244 12.1 102910 67
2006-06-06 08:39:51 51°13.603 2°56.1 -999 260 12.1 102910 67
2006-06-06 08:39:56 51°13.603 2°56.1 -999 266 12.1 102910 67
2006-06-06 08:40:01 51°13.603 2°56.1 -999 255 12.1 102910 67
2006-06-06 08:40:06 51°13.603 2°56.1 -999 264 12.1 102910 67
2006-06-06 08:40:11 51°13.603 2°56.1 -999 259 12.1 102910 67
2006-06-06 08:40:16 51°13.603 2°56.1 -999 258 12.1 102910 67
2006-06-06 08:40:21 51°13.602 2°56.1 -999 271 12.1 102910 67
2006-06-06 08:40:26 51°13.602 2°56.1 -999 269 12.1 102910 67
2006-06-06 08:40:31 51°13.602 2°56.1 -999 265 12.1 102910 67
2006-06-06 08:40:36 51°13.602 2°56.1 -999 265 12.1 102910 67
2006-06-06 08:40:41 51°13.602 2°56.1 -999 264 12.1 102910 67
2006-06-06 08:40:46 51°13.602 2°56.1 -999 272 12.1 102910 67
2006-06-06 08:40:51 51°13.601 2°56.1 -999 270 12.1 102910 67
2006-06-06 08:40:56 51°13.601 2°56.1 -999 273 12.1 102910 67
2006-06-06 08:41:01 51°13.601 2°56.099 -999 264 12.1 102910 67
2006-06-06 08:41:07 51°13.601 2°56.099 -999 272 12.1 102910 67
2006-06-06 08:41:11 51°13.601 2°56.099 -999 278 12.1 102910 67
2006-06-06 08:41:16 51°13.601 2°56.099 -999 273 12.1 102910 67
2006-06-06 08:41:21 51°13.601 2°56.099 -999 273 12.1 102910 67
2006-06-06 08:41:26 51°13.601 2°56.099 -999 274 12.1 102910 67
2006-06-06 08:41:31 51°13.601 2°56.099 -999 270 12.1 102910 66
2006-06-06 08:41:36 51°13.601 2°56.099 -999 271 12.1 102910 66
2006-06-06 08:41:41 51°13.6 2°56.099 -999 257 12.1 102910 66
2006-06-06 08:41:46 51°13.601 2°56.099 -999 271 12.1 102910 66
2006-06-06 08:41:51 51°13.601 2°56.099 -999 259 12.1 102910 66
2006-06-06 08:41:54 51°13.601 2°56.1 -999 229 12.1 102910 66
2006-06-06 08:42:01 51°13.602 2°56.1 -999 269 12.1 102910 66
2006-06-06 08:42:06 51°13.602 2°56.1 -999 254 12.1 102910 66
2006-06-06 08:42:11 51°13.602 2°56.1 -999 251 12.1 102910 66
2006-06-06 08:42:14 51°13.602 2°56.1 -999 248 12.1 102910 66
2006-06-06 08:42:21 51°13.602 2°56.1 -999 260 12 102910 66
2006-06-06 08:42:26 51°13.602 2°56.1 -999 279 12 102910 66
2006-06-06 08:42:31 51°13.602 2°56.1 -999 259 12 102910 67
2006-06-06 08:42:34 51°13.601 2°56.1 -999 270 12 102910 67
2006-06-06 08:42:41 51°13.602 2°56.1 -999 285 12.1 102910 67
2006-06-06 08:42:46 51°13.602 2°56.1 -999 286 12.1 102910 67
2006-06-06 08:42:50 51°13.602 2°56.1 -999 258 12.1 102910 67
2006-06-06 08:42:55 51°13.602 2°56.1 -999 263 12.1 102910 67
2006-06-06 08:43:01 51°13.602 2°56.1 -999 262 12.1 102910 67
2006-06-06 08:43:06 51°13.602 2°56.1 -999 264 12.1 102910 67
2006-06-06 08:43:11 51°13.603 2°56.1 -999 264 12.1 102910 67
2006-06-06 08:43:16 51°13.603 2°56.1 -999 280 12.1 102910 67
2006-06-06 08:43:21 51°13.602 2°56.1 -999 265 12.1 102910 67
2006-06-06 08:43:26 51°13.6 2°56.1 -999 247 12.1 102910 67
2006-06-06 08:43:31 51°13.599 2°56.099 -999 234 12.1 102910 67
2006-06-06 08:43:35 51°13.599 2°56.099 -999 222 12.1 102910 67
2006-06-06 08:43:41 51°13.599 2°56.1 -999 234 12.2 102910 67
2006-06-06 08:43:46 51°13.599 2°56.1 -999 232 12.2 102910 67
2006-06-06 08:43:51 51°13.6 2°56.1 -999 227 12.2 102910 67
2006-06-06 08:43:57 51°13.6 2°56.1 -999 253 12.2 102910 67
2006-06-06 08:44:01 51°13.6 2°56.1 -999 270 12.2 102910 67
2006-06-06 08:44:06 51°13.601 2°56.1 -999 253 12.2 102910 67
2006-06-06 08:44:11 51°13.601 2°56.1 -999 243 12.2 102910 67
2006-06-06 08:44:17 51°13.601 2°56.1 -999 257 12.2 102910 67
2006-06-06 08:44:21 51°13.601 2°56.1 -999 251 12.2 102910 67
2006-06-06 08:44:27 51°13.601 2°56.1 -999 252 12.2 102910 67
2006-06-06 08:44:31 51°13.601 2°56.1 -999 260 12.3 102920 67
2006-06-06 08:44:37 51°13.6 2°56.1 -999 272 12.3 102920 67
2006-06-06 08:44:41 51°13.6 2°56.1 -999 253 12.3 102920 67
2006-06-06 08:44:47 51°13.601 2°56.1 -999 254 12.3 102920 67
2006-06-06 08:44:51 51°13.601 2°56.1 -999 256 12.3 102920 67
2006-06-06 08:44:57 51°13.601 2°56.1 -999 251 12.3 102920 67
2006-06-06 08:45:01 51°13.601 2°56.1 -999 261 12.3 102920 67
2006-06-06 08:45:06 51°13.601 2°56.1 -999 252 12.3 102920 67
2006-06-06 08:45:11 51°13.601 2°56.1 -999 253 12.3 102920 66
2006-06-06 08:45:17 51°13.601 2°56.1 -999 242 12.3 102920 66
2006-06-06 08:45:21 51°13.601 2°56.1 -999 231 12.3 102920 66
2006-06-06 08:45:27 51°13.601 2°56.1 -999 243 12.3 102920 66
2006-06-06 08:45:31 51°13.601 2°56.1 -999 242 12.3 102920 66
2006-06-06 08:45:36 51°13.602 2°56.099 -999 239 12.3 102920 66
2006-06-06 08:45:41 51°13.602 2°56.099 -999 262 12.3 102910 66
2006-06-06 08:45:46 51°13.602 2°56.1 -999 257 12.3 102910 66
2006-06-06 08:45:51 51°13.602 2°56.1 -999 254 12.3 102910 66
2006-06-06 08:45:55 51°13.602 2°56.1 -999 243 12.3 102910 66
2006-06-06 08:46:01 51°13.602 2°56.1 -999 263 12.3 102920 66
2006-06-06 08:46:07 51°13.602 2°56.1 -999 265 12.3 102920 66
2006-06-06 08:46:11 51°13.602 2°56.1 -999 254 12.3 102920 66
2006-06-06 08:46:17 51°13.602 2°56.1 -999 295 12.3 102920 66
2006-06-06 08:46:21 51°13.602 2°56.1 -999 251 12.3 102920 66
2006-06-06 08:46:26 51°13.601 2°56.1 -999 271 12.3 102920 66
2006-06-06 08:46:31 51°13.601 2°56.1 -999 279 12.3 102920 66
2006-06-06 08:46:36 51°13.601 2°56.1 -999 279 12.3 102920 66
2006-06-06 08:46:41 51°13.601 2°56.1 -999 280 12.3 102920 66
2006-06-06 08:46:46 51°13.601 2°56.099 -999 271 12.3 102920 66
2006-06-06 08:46:51 51°13.601 2°56.099 -999 287 12.3 102920 66
2006-06-06 08:46:56 51°13.601 2°56.099 -999 283 12.3 102920 66
2006-06-06 08:47:01 51°13.601 2°56.099 -999 292 12.3 102920 66
2006-06-06 08:47:06 51°13.601 2°56.099 -999 290 12.3 102920 66
2006-06-06 08:47:11 51°13.601 2°56.099 -999 300 12.3 102920 66
2006-06-06 08:47:15 51°13.601 2°56.099 -999 302 12.3 102920 66
2006-06-06 08:47:21 51°13.601 2°56.099 -999 307 12.3 102920 66
2006-06-06 08:47:26 51°13.601 2°56.099 -999 300 12.3 102920 66
2006-06-06 08:47:31 51°13.601 2°56.099 -999 312 12.3 102920 66
2006-06-06 08:47:37 51°13.6 2°56.099 -999 43 12.3 102920 66
2006-06-06 08:47:41 51°13.6 2°56.099 -999 296 12.3 102920 66
2006-06-06 08:47:46 51°13.6 2°56.098 -999 300 12.3 102920 66
2006-06-06 08:47:51 51°13.6 2°56.098 -999 301 12.3 102920 66
2006-06-06 08:47:56 51°13.6 2°56.098 -999 301 12.3 102920 66
2006-06-06 08:48:01 51°13.6 2°56.098 -999 302 12.3 102920 66
2006-06-06 08:48:06 51°13.6 2°56.098 -999 305 12.3 102920 66
2006-06-06 08:48:10 51°13.6 2°56.098 -999 296 12.3 102920 66
2006-06-06 08:48:16 51°13.6 2°56.097 -999 293 12.3 102920 66
2006-06-06 08:48:21 51°13.6 2°56.095 -999 294 12.3 102920 66
2006-06-06 08:48:26 51°13.6 2°56.093 -999 289 12.3 102920 66
2006-06-06 08:48:31 51°13.601 2°56.089 -999 288 12.3 102920 66
2006-06-06 08:48:35 51°13.601 2°56.086 -999 283 12.3 102920 66
2006-06-06 08:48:41 51°13.602 2°56.081 -999 285 12.3 102920 66
2006-06-06 08:48:46 51°13.602 2°56.075 -999 271 12.3 102920 66
2006-06-06 08:48:51 51°13.603 2°56.069 -999 276 12.3 102920 66
2006-06-06 08:48:55 51°13.604 2°56.064 -999 261 12.3 102920 66
2006-06-06 08:49:01 51°13.604 2°56.055 -999 250 12.3 102920 66
2006-06-06 08:49:06 51°13.605 2°56.048 -999 262 12.3 102920 66
2006-06-06 08:49:11 51°13.606 2°56.04 -999 204 12.3 102920 66
2006-06-06 08:49:17 51°13.607 2°56.03 -999 169 12.3 102920 66
2006-06-06 08:49:21 51°13.608 2°56.023 -999 220 12.3 102920 66
2006-06-06 08:49:27 51°13.61 2°56.013 -999 211 12.3 102920 66
2006-06-06 08:49:31 51°13.611 2°56.006 -999 213 12.3 102910 66
2006-06-06 08:49:36 51°13.612 2°55.997 -999 226 12.3 102910 66
2006-06-06 08:49:41 51°13.614 2°55.988 -999 229 12.3 102920 66
2006-06-06 08:49:47 51°13.616 2°55.977 -999 214 12.3 102920 66
2006-06-06 08:49:51 51°13.617 2°55.97 -999 213 12.3 102920 66
2006-06-06 08:49:57 51°13.619 2°55.959 -999 229 12.3 102920 66
2006-06-06 08:50:01 51°13.621 2°55.952 -999 232 12.3 102920 66
2006-06-06 08:50:06 51°13.623 2°55.943 -999 236 12.3 102920 66
2006-06-06 08:50:11 51°13.626 2°55.934 -999 225 12.3 102920 66
2006-06-06 08:50:17 51°13.629 2°55.923 -999 226 12.3 102920 66
2006-06-06 08:50:21 51°13.631 2°55.916 -999 241 12.3 102920 66
2006-06-06 08:50:26 51°13.635 2°55.907 -999 -999 12.3 102920 66
2006-06-06 08:50:31 51°13.638 2°55.898 -999 244 12.3 102920 66
2006-06-06 08:50:37 51°13.643 2°55.887 -999 252 12.3 102920 66
2006-06-06 08:50:41 51°13.646 2°55.88 -999 246 12.2 102920 66
2006-06-06 08:50:46 51°13.65 2°55.872 -999 219 12.2 102920 66
2006-06-06 08:50:51 51°13.654 2°55.864 -999 229 12.2 102920 66
2006-06-06 08:50:57 51°13.659 2°55.854 -999 238 12.2 102920 66
2006-06-06 08:51:01 51°13.663 2°55.847 -999 210 12.2 102920 66
2006-06-06 08:51:06 51°13.668 2°55.839 -999 219 12.2 102920 66
2006-06-06 08:51:11 51°13.673 2°55.83 -999 218 12.2 102920 66
2006-06-06 08:51:17 51°13.678 2°55.821 -999 230 12.2 102920 66
2006-06-06 08:51:21 51°13.682 2°55.815 -999 227 12.2 102920 66
2006-06-06 08:51:26 51°13.687 2°55.808 -999 231 12.2 102920 66
2006-06-06 08:51:31 51°13.692 2°55.8 -999 227 12.1 102920 66
2006-06-06 08:51:35 51°13.696 2°55.795 -999 199 12.1 102920 66
2006-06-06 08:51:41 51°13.701 2°55.788 -999 200 12.1 102920 66
2006-06-06 08:51:47 51°13.706 2°55.782 -999 220 12.1 102920 66
2006-06-06 08:51:51 51°13.708 2°55.778 -999 220 12.1 102920 66
2006-06-06 08:51:56 51°13.71 2°55.775 -999 223 12.1 102920 66
2006-06-06 08:52:01 51°13.712 2°55.773 -999 231 12.1 102920 66
2006-06-06 08:52:06 51°13.713 2°55.772 -999 248 12.1 102920 66
2006-06-06 08:52:11 51°13.713 2°55.771 -999 256 12.1 102920 66
2006-06-06 08:52:14 51°13.713 2°55.772 -999 263 12.1 102920 66
2006-06-06 08:52:21 51°13.712 2°55.773 -999 273 12 102920 66
2006-06-06 08:52:26 51°13.712 2°55.775 -999 264 12 102920 66
2006-06-06 08:52:31 51°13.711 2°55.775 -999 262 12 102920 66
2006-06-06 08:52:36 51°13.711 2°55.776 -999 268 12 102920 66
2006-06-06 08:52:41 51°13.712 2°55.775 -999 272 12 102920 66
2006-06-06 08:52:45 51°13.712 2°55.774 -999 272 12 102920 66
2006-06-06 08:52:51 51°13.712 2°55.771 -999 273 12 102920 66
2006-06-06 08:52:54 51°13.713 2°55.77 -999 262 12 102920 66
2006-06-06 08:53:01 51°13.713 2°55.765 -999 250 12 102920 66
2006-06-06 08:53:06 51°13.714 2°55.76 -999 242 12 102920 66
2006-06-06 08:53:11 51°13.715 2°55.755 -999 249 12 102920 67
2006-06-06 08:53:17 51°13.716 2°55.748 -999 234 12 102920 67
2006-06-06 08:53:21 51°13.716 2°55.743 -999 240 12 102920 67
2006-06-06 08:53:26 51°13.717 2°55.738 -999 242 12 102920 67
2006-06-06 08:53:31 51°13.718 2°55.732 -999 257 12 102920 67
2006-06-06 08:53:37 51°13.718 2°55.727 -999 287 12 102920 67
2006-06-06 08:53:41 51°13.719 2°55.724 -999 258 12 102920 67
2006-06-06 08:53:47 51°13.719 2°55.721 -999 262 12 102920 67
2006-06-06 08:53:51 51°13.719 2°55.72 -999 265 12 102920 67
2006-06-06 08:53:56 51°13.719 2°55.719 -999 273 12 102920 67
2006-06-06 08:54:01 51°13.72 2°55.72 -999 282 12 102920 67
2006-06-06 08:54:07 51°13.72 2°55.722 -999 289 12 102920 67
2006-06-06 08:54:11 51°13.721 2°55.723 -999 298 12 102920 67
2006-06-06 08:54:16 51°13.722 2°55.726 -999 309 12 102920 67
2006-06-06 08:54:21 51°13.723 2°55.729 -999 227 12 102920 67
2006-06-06 08:54:27 51°13.725 2°55.732 -999 336 12 102920 67
2006-06-06 08:54:31 51°13.725 2°55.733 -999 334 12 102920 67
2006-06-06 08:54:35 51°13.726 2°55.735 -999 353 12 102920 67
2006-06-06 08:54:41 51°13.727 2°55.736 -999 307 12 102920 67
2006-06-06 08:54:46 51°13.727 2°55.736 -999 332 12 102920 67
2006-06-06 08:54:50 51°13.727 2°55.736 -999 338 12 102920 67
2006-06-06 08:54:55 51°13.727 2°55.736 -999 349 12 102920 67
2006-06-06 08:55:01 51°13.726 2°55.735 -999 334 12 102920 67
2006-06-06 08:55:06 51°13.725 2°55.734 -999 285 12 102920 67
2006-06-06 08:55:11 51°13.723 2°55.732 -999 308 12 102920 67
2006-06-06 08:55:15 51°13.722 2°55.731 -999 295 12 102920 67
2006-06-06 08:55:21 51°13.719 2°55.728 -999 306 12 102920 67
2006-06-06 08:55:26 51°13.716 2°55.726 -999 305 12 102920 67
2006-06-06 08:55:31 51°13.714 2°55.723 -999 298 12.1 102920 68
2006-06-06 08:55:37 51°13.711 2°55.72 -999 298 12.1 102920 68
2006-06-06 08:55:41 51°13.709 2°55.718 -999 305 12.1 102920 68
2006-06-06 08:55:47 51°13.707 2°55.716 -999 306 12.1 102920 68
2006-06-06 08:55:51 51°13.706 2°55.715 -999 314 12.1 102920 68
2006-06-06 08:55:57 51°13.706 2°55.714 -999 336 12.1 102920 68
2006-06-06 08:56:01 51°13.707 2°55.714 -999 352 12.1 102920 68
2006-06-06 08:56:06 51°13.708 2°55.714 -999 -999 12.1 102920 68
2006-06-06 08:56:11 51°13.709 2°55.714 -999 356 12.1 102920 68
2006-06-06 08:56:17 51°13.712 2°55.714 -999 8 12.1 102920 68
2006-06-06 08:56:21 51°13.714 2°55.713 -999 22 12.1 102920 67
2006-06-06 08:56:27 51°13.718 2°55.712 -999 27 12.1 102920 67
2006-06-06 08:56:31 51°13.72 2°55.71 -999 32 12.1 102920 67
2006-06-06 08:56:36 51°13.724 2°55.708 -999 29 12.1 102920 67
2006-06-06 08:56:41 51°13.728 2°55.705 -999 31 12.1 102920 67
2006-06-06 08:56:46 51°13.733 2°55.702 -999 15 12.1 102920 67
2006-06-06 08:56:51 51°13.738 2°55.699 -999 18 12.1 102920 67
2006-06-06 08:56:56 51°13.743 2°55.696 -999 20 12.1 102920 67
2006-06-06 08:57:01 51°13.749 2°55.692 -999 20 12 102910 67
2006-06-06 08:57:06 51°13.755 2°55.688 -999 20 12 102910 67
2006-06-06 08:57:11 51°13.761 2°55.683 -999 23 12 102920 67
2006-06-06 08:57:16 51°13.767 2°55.679 -999 21 12 102920 67
2006-06-06 08:57:21 51°13.774 2°55.674 -999 10 12 102920 67
2006-06-06 08:57:26 51°13.781 2°55.669 -999 9 12 102920 67
2006-06-06 08:57:31 51°13.787 2°55.664 -999 19 12 102920 68
2006-06-06 08:57:35 51°13.793 2°55.66 -999 15 12 102920 68
2006-06-06 08:57:41 51°13.802 2°55.654 -999 18 12 102920 67
2006-06-06 08:57:46 51°13.809 2°55.649 -999 15 12 102920 67
2006-06-06 08:57:51 51°13.816 2°55.643 -999 23 12 102920 68
2006-06-06 08:57:55 51°13.823 2°55.639 -999 14 12 102920 68
2006-06-06 08:58:01 51°13.832 2°55.632 -999 11 12 102920 68
2006-06-06 08:58:06 51°13.84 2°55.627 -999 19 12 102920 68
2006-06-06 08:58:11 51°13.848 2°55.621 -999 19 12 102910 68
2006-06-06 08:58:15 51°13.854 2°55.616 -999 23 12 102910 68
2006-06-06 08:58:21 51°13.864 2°55.608 -999 22 12 102910 68
2006-06-06 08:58:26 51°13.872 2°55.602 -999 23 12 102910 68
2006-06-06 08:58:31 51°13.881 2°55.596 -999 22 12 102920 68
2006-06-06 08:58:35 51°13.887 2°55.591 -999 20 12 102920 68
2006-06-06 08:58:41 51°13.897 2°55.583 -999 28 12 102910 68
2006-06-06 08:58:46 51°13.906 2°55.577 -999 27 12 102910 68
2006-06-06 08:58:51 51°13.914 2°55.571 -999 28 12 102910 68
2006-06-06 08:58:55 51°13.92 2°55.567 -999 22 12 102910 68
2006-06-06 08:59:01 51°13.93 2°55.56 -999 29 11.9 102910 68
2006-06-06 08:59:06 51°13.938 2°55.554 -999 23 11.9 102910 68
2006-06-06 08:59:11 51°13.946 2°55.549 -999 23 11.9 102910 67
2006-06-06 08:59:16 51°13.954 2°55.543 -999 18 11.9 102910 67
2006-06-06 08:59:21 51°13.961 2°55.538 -999 22 11.9 102910 68
2006-06-06 08:59:26 51°13.969 2°55.533 -999 18 11.9 102910 68
2006-06-06 08:59:31 51°13.976 2°55.527 -999 20 11.9 102910 68
2006-06-06 08:59:36 51°13.983 2°55.522 -999 32 11.9 102910 68
2006-06-06 08:59:41 51°13.991 2°55.517 -999 26 11.9 102910 68
2006-06-06 08:59:46 51°13.998 2°55.512 -999 22 11.9 102910 68
2006-06-06 08:59:51 51°14.005 2°55.507 -999 20 11.9 102920 69
2006-06-06 08:59:56 51°14.013 2°55.502 -999 19 11.9 102920 69
2006-06-06 09:00:01 51°14.02 2°55.496 -999 25 11.9 102910 69
2006-06-06 09:00:06 51°14.028 2°55.491 -999 28 11.9 102910 69
2006-06-06 09:00:11 51°14.035 2°55.485 -999 23 11.9 102910 69
2006-06-06 09:00:14 51°14.04 2°55.481 -999 25 11.9 102910 69
2006-06-06 09:00:21 51°14.051 2°55.473 -999 28 11.9 102910 69
2006-06-06 09:00:26 51°14.058 2°55.468 -999 25 11.9 102910 69
2006-06-06 09:00:31 51°14.066 2°55.462 -999 23 11.9 102910 68
2006-06-06 09:00:35 51°14.073 2°55.457 -999 21 11.9 102910 68
2006-06-06 09:00:41 51°14.082 2°55.45 -999 23 11.9 102920 68
2006-06-06 09:00:46 51°14.09 2°55.444 -999 19 11.9 102920 68
2006-06-06 09:00:51 51°14.098 2°55.438 -999 22 11.9 102910 69
2006-06-06 09:00:55 51°14.105 2°55.433 -999 18 11.9 102910 69
2006-06-06 09:01:01 51°14.115 2°55.426 -999 19 11.9 102910 69
2006-06-06 09:01:06 51°14.124 2°55.42 -999 17 11.9 102910 69
2006-06-06 09:01:11 51°14.133 2°55.413 -999 17 11.9 102910 69
2006-06-06 09:01:15 51°14.14 2°55.408 -999 29 11.9 102910 69
2006-06-06 09:01:21 51°14.151 2°55.4 -999 26 11.9 102920 68
2006-06-06 09:01:26 51°14.16 2°55.394 -999 29 11.9 102920 68
2006-06-06 09:01:31 51°14.169 2°55.386 -999 29 11.9 102910 68
2006-06-06 09:01:35 51°14.176 2°55.38 -999 29 11.9 102910 68
2006-06-06 09:01:41 51°14.187 2°55.369 -999 36 11.8 102910 69
2006-06-06 09:01:46 51°14.196 2°55.36 -999 36 11.8 102910 69
2006-06-06 09:01:51 51°14.205 2°55.351 -999 31 11.9 102910 69
2006-06-06 09:01:55 51°14.211 2°55.343 -999 30 11.9 102910 69
2006-06-06 09:02:01 51°14.222 2°55.331 -999 24 11.8 102920 69
2006-06-06 09:02:06 51°14.23 2°55.319 -999 34 11.8 102920 69
2006-06-06 09:02:11 51°14.239 2°55.307 -999 34 11.8 102920 69
2006-06-06 09:02:15 51°14.245 2°55.297 -999 29 11.8 102920 69
2006-06-06 09:02:21 51°14.255 2°55.281 -999 35 11.8 102920 70
2006-06-06 09:02:26 51°14.263 2°55.267 -999 32 11.8 102920 70
2006-06-06 09:02:31 51°14.271 2°55.253 -999 33 11.8 102910 70
2006-06-06 09:02:35 51°14.278 2°55.241 -999 28 11.8 102910 70
2006-06-06 09:02:41 51°14.287 2°55.221 -999 30 11.8 102920 69
2006-06-06 09:02:46 51°14.295 2°55.206 -999 30 11.8 102920 69
2006-06-06 09:02:51 51°14.303 2°55.189 -999 38 11.8 102920 69
2006-06-06 09:02:55 51°14.309 2°55.175 -999 43 11.8 102920 69
2006-06-06 09:03:01 51°14.317 2°55.155 -999 34 11.8 102920 69
2006-06-06 09:03:06 51°14.325 2°55.138 -999 28 11.8 102920 69
2006-06-06 09:03:11 51°14.332 2°55.121 -999 35 11.8 102920 70
2006-06-06 09:03:15 51°14.339 2°55.107 -999 37 11.8 102920 70
2006-06-06 09:03:21 51°14.348 2°55.086 -999 42 11.7 102910 69
2006-06-06 09:03:26 51°14.355 2°55.068 -999 45 11.7 102910 69
2006-06-06 09:03:31 51°14.363 2°55.049 -999 43 11.7 102920 70
2006-06-06 09:03:35 51°14.369 2°55.035 -999 43 11.7 102920 70
2006-06-06 09:03:41 51°14.378 2°55.012 -999 49 11.7 102920 69
2006-06-06 09:03:46 51°14.385 2°54.994 -999 47 11.7 102920 69
2006-06-06 09:03:51 51°14.393 2°54.976 -999 46 11.7 102920 69
2006-06-06 09:03:55 51°14.399 2°54.961 -999 52 11.7 102920 69
2006-06-06 09:04:01 51°14.409 2°54.939 -999 51 11.6 102910 69
2006-06-06 09:04:06 51°14.416 2°54.92 -999 50 11.6 102910 69
2006-06-06 09:04:11 51°14.424 2°54.901 -999 57 11.6 102910 69
2006-06-06 09:04:15 51°14.43 2°54.886 -999 58 11.6 102910 69
2006-06-06 09:04:21 51°14.439 2°54.861 -999 58 11.6 102920 68
2006-06-06 09:04:26 51°14.446 2°54.842 -999 56 11.6 102920 68
2006-06-06 09:04:31 51°14.454 2°54.822 -999 56 11.6 102920 69
2006-06-06 09:04:35 51°14.46 2°54.805 -999 46 11.6 102920 69
2006-06-06 09:04:41 51°14.468 2°54.781 -999 51 11.6 102920 69
2006-06-06 09:04:46 51°14.476 2°54.758 -999 53 11.6 102920 69
2006-06-06 09:04:51 51°14.483 2°54.735 -999 55 11.6 102910 69
2006-06-06 09:04:55 51°14.488 2°54.717 -999 58 11.6 102910 69
2006-06-06 09:05:01 51°14.496 2°54.687 -999 53 11.6 102920 70
2006-06-06 09:05:06 51°14.502 2°54.663 -999 48 11.6 102920 70
2006-06-06 09:05:11 51°14.507 2°54.638 -999 54 11.5 102920 70
2006-06-06 09:05:15 51°14.511 2°54.618 -999 54 11.5 102920 70
2006-06-06 09:05:21 51°14.516 2°54.587 -999 54 11.6 102920 70
2006-06-06 09:05:26 51°14.52 2°54.561 -999 54 11.6 102920 70
2006-06-06 09:05:31 51°14.525 2°54.536 -999 57 11.6 102920 71
2006-06-06 09:05:35 51°14.529 2°54.515 -999 53 11.6 102920 71
2006-06-06 09:05:41 51°14.536 2°54.485 -999 51 11.6 102910 70
2006-06-06 09:05:46 51°14.544 2°54.461 -999 49 11.6 102910 70
2006-06-06 09:05:51 51°14.552 2°54.437 -999 51 11.5 102920 70
2006-06-06 09:05:55 51°14.558 2°54.418 -999 45 11.5 102920 70
2006-06-06 09:06:01 51°14.568 2°54.389 -999 51 11.5 102920 70
2006-06-06 09:06:06 51°14.577 2°54.365 -999 47 11.5 102920 70
2006-06-06 09:06:11 51°14.585 2°54.342 -999 48 11.5 102910 70
2006-06-06 09:06:15 51°14.592 2°54.323 -999 50 11.5 102910 70
2006-06-06 09:06:21 51°14.602 2°54.294 -999 49 11.5 102900 70
2006-06-06 09:06:26 51°14.61 2°54.27 -999 49 11.5 102900 70
2006-06-06 09:06:31 51°14.618 2°54.246 -999 50 11.5 102900 70
2006-06-06 09:06:35 51°14.624 2°54.227 -999 52 11.5 102900 70
2006-06-06 09:06:41 51°14.634 2°54.198 -999 47 11.5 102910 70
2006-06-06 09:06:46 51°14.642 2°54.174 -999 44 11.5 102910 70
2006-06-06 09:06:51 51°14.649 2°54.149 -999 48 11.5 102900 70
2006-06-06 09:06:55 51°14.655 2°54.13 -999 42 11.5 102900 70
2006-06-06 09:07:01 51°14.664 2°54.101 -999 48 11.5 102910 69
2006-06-06 09:07:06 51°14.672 2°54.076 -999 48 11.5 102910 69
2006-06-06 09:07:11 51°14.68 2°54.052 -999 51 11.5 102910 70
2006-06-06 09:07:15 51°14.686 2°54.033 -999 42 11.5 102910 70
2006-06-06 09:07:21 51°14.696 2°54.005 -999 48 11.5 102910 70
2006-06-06 09:07:26 51°14.704 2°53.981 -999 50 11.5 102910 70
2006-06-06 09:07:31 51°14.712 2°53.957 -999 50 11.5 102910 70
2006-06-06 09:07:35 51°14.718 2°53.938 -999 48 11.5 102910 70
2006-06-06 09:07:41 51°14.728 2°53.91 -999 51 11.4 102910 70
2006-06-06 09:07:46 51°14.735 2°53.886 -999 47 11.4 102910 70
2006-06-06 09:07:51 51°14.743 2°53.861 -999 46 11.4 102920 70
2006-06-06 09:07:55 51°14.749 2°53.841 -999 52 11.4 102920 70
2006-06-06 09:08:01 51°14.757 2°53.812 -999 42 11.4 102920 70
2006-06-06 09:08:06 51°14.765 2°53.787 -999 56 11.4 102920 70
2006-06-06 09:08:11 51°14.772 2°53.763 -999 54 11.4 102910 70
2006-06-06 09:08:15 51°14.778 2°53.743 -999 48 11.4 102910 70
2006-06-06 09:08:21 51°14.787 2°53.714 -999 48 11.5 102920 70
2006-06-06 09:08:26 51°14.795 2°53.688 -999 44 11.5 102920 70
2006-06-06 09:08:31 51°14.802 2°53.664 -999 47 11.4 102920 70
2006-06-06 09:08:35 51°14.808 2°53.644 -999 44 11.4 102920 70
2006-06-06 09:08:41 51°14.817 2°53.613 -999 50 11.4 102910 70
2006-06-06 09:08:46 51°14.825 2°53.588 -999 44 11.4 102910 70
2006-06-06 09:08:51 51°14.832 2°53.562 -999 59 11.4 102920 70
2006-06-06 09:08:55 51°14.838 2°53.543 -999 64 11.4 102920 70
2006-06-06 09:09:01 51°14.847 2°53.512 -999 64 11.4 102920 70
2006-06-06 09:09:06 51°14.855 2°53.487 -999 59 11.4 102920 70
2006-06-06 09:09:11 51°14.863 2°53.462 -999 44 11.4 102910 70
2006-06-06 09:09:15 51°14.869 2°53.442 -999 40 11.4 102910 70
2006-06-06 09:09:21 51°14.878 2°53.412 -999 40 11.5 102910 70
2006-06-06 09:09:26 51°14.886 2°53.386 -999 47 11.5 102910 70
2006-06-06 09:09:31 51°14.893 2°53.362 -999 47 11.5 102910 71
2006-06-06 09:09:35 51°14.899 2°53.341 -999 47 11.5 102910 71
2006-06-06 09:09:41 51°14.908 2°53.311 -999 49 11.5 102920 70
2006-06-06 09:09:46 51°14.916 2°53.286 -999 48 11.5 102920 70
2006-06-06 09:09:51 51°14.924 2°53.261 -999 50 11.4 102910 70
2006-06-06 09:09:55 51°14.931 2°53.241 -999 48 11.4 102910 70
2006-06-06 09:10:01 51°14.94 2°53.211 -999 48 11.4 102920 70
2006-06-06 09:10:06 51°14.948 2°53.186 -999 51 11.4 102920 70
2006-06-06 09:10:11 51°14.956 2°53.162 -999 53 11.4 102920 70
2006-06-06 09:10:15 51°14.963 2°53.142 -999 55 11.4 102920 70
2006-06-06 09:10:21 51°14.972 2°53.112 -999 49 11.5 102910 71
2006-06-06 09:10:26 51°14.98 2°53.087 -999 53 11.5 102910 71
2006-06-06 09:10:31 51°14.988 2°53.063 -999 53 11.5 102910 70
2006-06-06 09:10:35 51°14.995 2°53.043 -999 54 11.5 102910 70
2006-06-06 09:10:41 51°15.004 2°53.013 -999 53 11.4 102910 70
2006-06-06 09:10:46 51°15.012 2°52.988 -999 54 11.4 102910 70
2006-06-06 09:10:51 51°15.02 2°52.963 -999 53 11.4 102920 69
2006-06-06 09:10:55 51°15.027 2°52.944 -999 55 11.4 102920 69
2006-06-06 09:11:01 51°15.036 2°52.914 -999 49 11.4 102910 69
2006-06-06 09:11:06 51°15.044 2°52.89 -999 50 11.4 102910 69
2006-06-06 09:11:11 51°15.052 2°52.865 -999 49 11.4 102910 69
2006-06-06 09:11:15 51°15.058 2°52.845 -999 50 11.4 102910 69